Copper Harbor, MI

5:51 AM EDT on September 21, 2017 (GMT -0400)
Copper Harbor

Weather History for KP59 - April, 2012

Change the Weather History Date:

Friday, April 27, 2012

  Actual Average Record
Temperature  
Mean Temperature 34 °F -  
Max Temperature 39 °F 48 °F 61 °F (2013)
Min Temperature 30 °F 32 °F 25 °F (2014)
Degree Days  
Heating Degree Days 30    
Moisture  
Dew Point 22 °F    
Average Humidity 57    
Maximum Humidity 73    
Minimum Humidity 44    
Precipitation  
Precipitation 0.00 in - - ()
Sea Level Pressure  
Sea Level Pressure 30.29 in    
Wind  
Wind Speed 7 mph (NE)    
Max Wind Speed 14 mph    
Max Gust Speed -    
Averages and records for this station are not official NWS values.
T = Trace of Precipitation, MM = Missing Value Source: NWS Daily Summary

Daily Weather History Graph

Daily Weather History Graph

Search for Another Location

Airport or City:

Trip Planner

Search our weather history database for the weather conditions in past years. The results will help you decide how hot, cold, wet, or windy it might be!

Date:

Astronomy

Apr. 27, 2012 Rise Set
Actual Time 6:40 AM EDT 8:58 PM EDT
Civil Twilight 6:06 AM EDT 9:32 PM EDT
Nautical Twilight 5:24 AM EDT 10:14 PM EDT
Astronomical Twilight 4:37 AM EDT 11:02 PM EDT
Moon 11:12 AM EDT (4/27) 1:52 AM EDT (4/27)
Length of Visible Light 15h 25m
Length of Day
14h 17m
Waxing Crescent, 33% of the Moon is Illuminated
Apr 27
Waxing Crescent
Apr 29
First Quarter
May 5
Full
May 12
Last Quarter
May 20
New

Hourly Weather History & Observations

Time (EDT) Temp. Windchill Dew Point Humidity Pressure Visibility Wind Dir Wind Speed Gust Speed Precip Events Conditions
12:51 AM 36.0 °F 33.3 °F 26.1 °F 67% 30.20 in - West 3.5 mph - N/A   Unknown
1:51 AM 36.0 °F 32.1 °F 26.1 °F 67% 30.18 in - NNW 4.6 mph - N/A   Unknown
2:51 AM 37.0 °F 31.0 °F 26.1 °F 65% 30.22 in - North 8.1 mph - N/A   Unknown
3:51 AM 39.0 °F 31.8 °F 28.9 °F 67% 30.22 in - NNE 11.5 mph - N/A   Unknown
4:51 AM 37.9 °F 30.9 °F 30.0 °F 73% 30.23 in - NNE 10.4 mph - N/A   Unknown
5:51 AM 37.9 °F 30.9 °F 30.0 °F 73% 30.24 in - NE 10.4 mph - N/A   Unknown
6:51 AM 37.0 °F 28.5 °F 26.1 °F 65% 30.25 in - ENE 13.8 mph - N/A   Unknown
7:51 AM 37.9 °F 30.9 °F 21.9 °F 53% 30.27 in - ENE 10.4 mph - N/A   Unknown
8:51 AM 37.9 °F 32.1 °F 24.1 °F 57% 30.30 in - ENE 8.1 mph - N/A   Unknown
9:51 AM 37.9 °F 30.9 °F 25.0 °F 60% 30.31 in - NE 10.4 mph - N/A   Unknown
10:51 AM 37.9 °F 31.5 °F 21.9 °F 53% 30.32 in - ENE 9.2 mph - N/A   Unknown
11:51 AM 37.9 °F 30.9 °F 21.9 °F 53% 30.34 in - NE 10.4 mph - N/A   Unknown
12:51 PM 37.9 °F 32.7 °F 21.0 °F 51% 30.34 in - NE 6.9 mph - N/A   Unknown
1:51 PM 37.4 °F 30.8 °F 21.2 °F 52% 30.32 in - NE 9.2 mph - N/A   Unknown
2:51 PM 37.0 °F 29.3 °F 19.0 °F 48% 30.35 in - ENE 11.5 mph - N/A   Unknown
3:51 PM 39.0 °F 34.0 °F 19.9 °F 46% 30.34 in - ENE 6.9 mph - N/A   Unknown
4:51 PM 37.9 °F 33.5 °F 21.9 °F 53% 30.33 in - East 5.8 mph - N/A   Unknown
5:51 PM 37.9 °F 35.5 °F 19.9 °F 48% 30.32 in - ENE 3.5 mph - N/A   Unknown
6:51 PM 36.0 °F - 17.1 °F 46% 30.32 in - Calm Calm - N/A   Unknown
7:51 PM 35.1 °F - 15.1 °F 44% 30.31 in - Calm Calm - N/A   Unknown
8:51 PM 34.0 °F - 18.0 °F 52% 30.30 in - Calm Calm - N/A   Unknown
9:51 PM 30.9 °F 26.2 °F 19.0 °F 61% 30.33 in - WSW 4.6 mph - N/A   Unknown
10:51 PM 32.0 °F - 17.1 °F 54% 30.32 in - Calm Calm - N/A   Unknown
11:51 PM 33.1 °F 28.7 °F 19.9 °F 59% 30.32 in - SW 4.6 mph - N/A   Unknown